weerbeeld Almere Meer informatie weerbeeld Almere


Onweer radar Meer informatie blitzortung!


Regen radar Meer informatie rain snow radar


Apparatuur in gebruik:

Davis VP2

Meteohub

ALIX 1D

Web-Oke


Het weer levert geen direct gevaar op.    Er zijn geen waarschuwingen afgegeven.

Weather Underground Historische gegevens

Dagelijkse Samenvatting januari 20, 2019 Eenheden:  Metrisch    Engels   Beide
« Vorige Dag
Volgende Dag »
Dagelijkse Wekelijkse Maandelijkse Jaarlijkse Aangepaste
  Huidig: Hoog: Laag: Gemiddeld:
Temperatuur: -19.9 °C -17.8 °C -19.9 °C -19.3 °C
Dauwpunt: -21.3 °C -17.8 °C -21.4 °C -20.8 °C
Vochtigheid: 82 % Humidity % 80 % 80 %
Wind snelheid: 7.7 km/h 0 km/h 2.6 km/h 7.7 km/h
Windvlaag: 15.6 km/h 0 km/h - -
Wind:ENE - - ENE
Luchtdruk: 34384.8 hPa 0 hPa 34361.1 hPa -
Neerslag: 0 mm      
Historical Graphs
 
 
Tabel voor januari 20, 2019
Tijd Temperatuur Dauwpunt Luchtdruk Wind Wind snelheid Windvlaag Vochtigheid Regenval per uur
-17.8 °C -17.8 °C 0 hPa Calm     Humidity % 0 mm
00:02 -18.8 °C -20.4 °C 34361.1 hPa ENE 7.7 km/h 20.8 km/h 80 % 0 mm
00:07 -18.8 °C -20.5 °C 34361.1 hPa East 7.7 km/h 20.8 km/h 80 % 0 mm
00:12 -18.8 °C -20.5 °C 34361.1 hPa ENE 7.7 km/h 20.8 km/h 80 % 0 mm
00:17 -18.8 °C -20.5 °C 34371.3 hPa East 18.2 km/h 20.8 km/h 80 % 0 mm
00:22 -18.8 °C -20.5 °C 34371.3 hPa East 12.9 km/h 20.8 km/h 80 % 0 mm
00:27 -18.8 °C -20.5 °C 34371.3 hPa East 12.9 km/h 20.8 km/h 80 % 0 mm
00:32 -18.8 °C -20.5 °C 34371.3 hPa East 15.6 km/h 20.8 km/h 80 % 0 mm
00:37 -18.9 °C -20.6 °C 34371.3 hPa ENE 10.3 km/h 18.2 km/h 80 % 0 mm
00:42 -18.9 °C -20.6 °C 34371.3 hPa East 7.7 km/h 18.2 km/h 80 % 0 mm
00:47 -18.9 °C -20.6 °C 34371.3 hPa ENE 7.7 km/h 18.2 km/h 80 % 0 mm
00:52 -18.9 °C -20.6 °C 34371.3 hPa ENE 10.3 km/h 18.2 km/h 80 % 0 mm
00:57 -18.9 °C -20.6 °C 34371.3 hPa ENE 7.7 km/h 18.2 km/h 80 % 0 mm
01:02 -18.9 °C -20.6 °C 34371.3 hPa ENE 12.9 km/h 18.2 km/h 80 % 0 mm
01:07 -18.9 °C -20.5 °C 34371.3 hPa ENE 18.2 km/h 18.2 km/h 81 % 0 mm
01:12 -18.9 °C -20.5 °C 34371.3 hPa East 7.7 km/h 20.8 km/h 81 % 0 mm
01:17 -18.9 °C -20.5 °C 34371.3 hPa ENE 5.1 km/h 20.8 km/h 81 % 0 mm
01:22 -19 °C -20.6 °C 34371.3 hPa ENE 7.7 km/h 20.8 km/h 81 % 0 mm
01:27 -19 °C -20.6 °C 34371.3 hPa East 7.7 km/h 18.2 km/h 81 % 0 mm
01:32 -19.1 °C -20.6 °C 34371.3 hPa ENE 5.1 km/h 18.2 km/h 81 % 0 mm
01:37 -19.1 °C -20.6 °C 34371.3 hPa East 5.1 km/h 18.2 km/h 81 % 0 mm
01:42 -19.1 °C -20.6 °C 34371.3 hPa East 7.7 km/h 18.2 km/h 81 % 0 mm
01:47 -19.1 °C -20.7 °C 34371.3 hPa ENE 10.3 km/h 15.6 km/h 81 % 0 mm
01:52 -19.1 °C -20.7 °C 34371.3 hPa ENE 5.1 km/h 18.2 km/h 81 % 0 mm
01:57 -19.1 °C -20.7 °C 34371.3 hPa NE 10.3 km/h 18.2 km/h 81 % 0 mm
02:02 -19.1 °C -20.6 °C 34371.3 hPa ENE 12.9 km/h 18.2 km/h 82 % 0 mm
02:07 -19.2 °C -20.6 °C 34371.3 hPa East 12.9 km/h 18.2 km/h 82 % 0 mm
02:12 -19.2 °C -20.7 °C 34371.3 hPa NE 7.7 km/h 18.2 km/h 81 % 0 mm
02:17 -19.1 °C -20.7 °C 34371.3 hPa ENE 7.7 km/h 20.8 km/h 81 % 0 mm
02:22 -19.1 °C -20.7 °C 34371.3 hPa East 7.7 km/h 20.8 km/h 81 % 0 mm
02:27 -19.1 °C -20.7 °C 34371.3 hPa East 15.6 km/h 20.8 km/h 81 % 0 mm
02:32 -19.1 °C -20.7 °C 34371.3 hPa ENE 7.7 km/h 18.2 km/h 81 % 0 mm
02:37 -19.1 °C -20.7 °C 34371.3 hPa ENE 2.6 km/h 18.2 km/h 81 % 0 mm
02:42 -19.2 °C -20.7 °C 34371.3 hPa East 7.7 km/h 18.2 km/h 81 % 0 mm
02:47 -19.2 °C -20.9 °C 34371.3 hPa East 5.1 km/h 15.6 km/h 80 % 0 mm
02:52 -19.2 °C -20.8 °C 34371.3 hPa East 5.1 km/h 15.6 km/h 81 % 0 mm
02:57 -19.3 °C -20.8 °C 34371.3 hPa ENE 7.7 km/h 15.6 km/h 81 % 0 mm
03:02 -19.3 °C -20.8 °C 34371.3 hPa East 12.9 km/h 15.6 km/h 81 % 0 mm
03:07 -19.3 °C -20.9 °C 34371.3 hPa ESE 7.7 km/h 15.6 km/h 81 % 0 mm
03:12 -19.3 °C -20.9 °C 34371.3 hPa ENE 7.7 km/h 15.6 km/h 81 % 0 mm
03:17 -19.3 °C -20.9 °C 34371.3 hPa East 7.7 km/h 15.6 km/h 81 % 0 mm
03:22 -19.3 °C -20.9 °C 34371.3 hPa ENE 7.7 km/h 15.6 km/h 81 % 0 mm
03:27 -19.4 °C -20.9 °C 34371.3 hPa East 12.9 km/h 15.6 km/h 81 % 0 mm
03:32 -19.4 °C -20.9 °C 34371.3 hPa ENE 10.3 km/h 15.6 km/h 82 % 0 mm
03:37 -19.4 °C -20.9 °C 34371.3 hPa ENE 5.1 km/h 15.6 km/h 81 % 0 mm
03:42 -19.4 °C -20.8 °C 34371.3 hPa East 7.7 km/h 15.6 km/h 82 % 0 mm
03:47 -19.4 °C -20.8 °C 34371.3 hPa ENE 5.1 km/h 15.6 km/h 82 % 0 mm
03:52 -19.4 °C -20.9 °C 34371.3 hPa ENE 10.3 km/h 18.2 km/h 82 % 0 mm
03:57 -19.5 °C -20.9 °C 34371.3 hPa ENE 7.7 km/h 18.2 km/h 82 % 0 mm
04:02 -19.5 °C -20.9 °C 34371.3 hPa ENE 10.3 km/h 18.2 km/h 82 % 0 mm
04:07 -19.5 °C -20.9 °C 34371.3 hPa East 12.9 km/h 12.9 km/h 82 % 0 mm
04:12 -19.5 °C -20.9 °C 34384.8 hPa ENE 7.7 km/h 12.9 km/h 82 % 0 mm
04:17 -19.5 °C -20.9 °C 34384.8 hPa ENE 2.6 km/h 15.6 km/h 82 % 0 mm
04:22 -19.5 °C -20.9 °C 34384.8 hPa ENE 2.6 km/h 15.6 km/h 82 % 0 mm
04:27 -19.6 °C -21.1 °C 34384.8 hPa ENE 5.1 km/h 15.6 km/h 81 % 0 mm
04:32 -19.6 °C -21.1 °C 34384.8 hPa ENE 7.7 km/h 7.7 km/h 81 % 0 mm
04:37 -19.6 °C -21.1 °C 34384.8 hPa ENE 5.1 km/h 7.7 km/h 81 % 0 mm
04:42 -19.6 °C -21.2 °C 34384.8 hPa ENE 7.7 km/h 7.7 km/h 81 % 0 mm
04:47 -19.6 °C -21.2 °C 34384.8 hPa ENE 7.7 km/h 7.7 km/h 81 % 0 mm
04:52 -19.7 °C -21.1 °C 34384.8 hPa ENE 2.6 km/h 7.7 km/h 82 % 0 mm
04:57 -19.6 °C -21.2 °C 34384.8 hPa ENE 7.7 km/h 12.9 km/h 81 % 0 mm
05:02 -19.6 °C -21.2 °C 34384.8 hPa NE 5.1 km/h 15.6 km/h 81 % 0 mm
05:07 -19.7 °C -21.2 °C 34384.8 hPa ENE 5.1 km/h 15.6 km/h 81 % 0 mm
05:12 -19.7 °C -21.2 °C 34384.8 hPa ENE 2.6 km/h 15.6 km/h 81 % 0 mm
05:17 -19.7 °C -21.2 °C 34384.8 hPa ENE 5.1 km/h 12.9 km/h 81 % 0 mm
05:22 -19.8 °C -21.3 °C 34384.8 hPa ENE 5.1 km/h 12.9 km/h 81 % 0 mm
05:27 -19.7 °C -21.2 °C 34384.8 hPa ENE 5.1 km/h 12.9 km/h 82 % 0 mm
05:32 -19.8 °C -21.2 °C 34384.8 hPa ENE 5.1 km/h 12.9 km/h 82 % 0 mm
05:37 -19.8 °C -21.2 °C 34384.8 hPa ENE 2.6 km/h 10.3 km/h 82 % 0 mm
05:42 -19.8 °C -21.3 °C 34384.8 hPa ENE 2.6 km/h 10.3 km/h 82 % 0 mm
05:47 -19.9 °C -21.3 °C 34384.8 hPa ENE 5.1 km/h 7.7 km/h 82 % 0 mm
05:52 -19.9 °C -21.4 °C 34384.8 hPa East 7.7 km/h 7.7 km/h 82 % 0 mm
05:57 -19.9 °C -21.3 °C 34384.8 hPa East 2.6 km/h 15.6 km/h 83 % 0 mm
06:02 -19.9 °C -21.3 °C 34384.8 hPa ENE 7.7 km/h 15.6 km/h 82 % 0 mm
Weerstation Almere Buiten
Gegevens verzameld door Weather Underground - 4 mb

Script ontwikkeld door  Jim McMurry - jmcmurry@mwt.net Aangepast voor de template door  Wim van der Kuil - Leuven-Template.eu

U vindt ons ook hier:

Het Weer Aktueel

UK Metoffice

European Weather Network

Weather Underground

AWEKAS